[[{"header":{"parameterUnit":"m.s-1","parameterCategory":1,"la1":30.2991,"la2":30.254,"lo1":-89.0895,"lo2":-89.0444,"dy":0.0017,"dx":0.0017,"nx":28,"ny":28,"refTime":"2024-07-27T03:00:00:Z","depth":0,"parameterNumber":2,"parameterNumberName":"U-component_of_WINDS"},"data":[0,0,0,0,0,0,0,0,0,0,0,0,0,0,0,0,0,0,0,0,0,0,0,0,0,0,0,0,0,0,0,0,0,0,0,0,0,0,0,0,0,0,0,0,0,0,0,0,0,0,0,0,0,0,0,0,0,0,1.5445,1.5446,0,1.5543,1.5544,1.5545,1.5572,1.5572,1.5571,1.5571,1.5675,1.5679,1.5682,0,0,0,0,0,0,0,0,0,0,0,0,0,1.5289,1.5292,1.5445,1.5447,1.5448,1.5543,1.5544,1.5545,1.5572,1.5572,1.5571,1.557,1.5674,1.5678,1.5682,0,0,0,0,0,0,0,0,0,0,0,0,0,1.5369,1.5293,1.5445,1.5473,1.5476,1.5542,1.5544,1.5546,1.5573,1.5572,1.5571,1.557,1.5673,1.5678,1.5683,1.573,0,0,1.5698,1.57,0,0,0,0,0,0,0,0,1.5364,1.5375,1.5467,1.5471,1.5475,1.5544,1.5527,1.5608,1.5573,1.5536,1.5571,1.557,1.5633,1.5641,1.5661,1.5735,1.574,1.5698,1.5701,1.5703,1.5705,0,0,0,0,0,0,0,1.5359,1.5371,1.5484,1.5469,1.5473,1.5482,1.5493,1.5543,1.5588,1.5539,1.5541,1.5552,1.5635,1.5656,1.5664,1.5741,1.5698,1.5703,1.5706,1.5708,1.5862,1.5863,0,0,0,0,0,0,1.5348,1.5366,1.5481,1.5487,1.5416,1.5486,1.5497,1.5523,1.5588,1.5597,1.5553,1.5553,1.5648,1.5658,1.5668,1.5729,1.5703,1.5708,1.5711,1.5861,1.5862,1.5863,0,0,0,0,0,0,1.5344,1.5358,1.5477,1.5427,1.5443,1.5489,1.5518,1.5525,1.5547,1.5598,1.5607,1.5566,1.5648,1.5661,1.5715,1.5733,1.571,1.5715,1.5859,1.5861,1.5863,1.5851,0,0,0,0,0,0,1.534,1.5356,1.5373,1.5427,1.5445,1.552,1.5519,1.5528,1.5555,1.5556,1.5613,1.5621,1.5648,1.5707,1.572,1.574,1.5719,1.5858,1.586,1.5862,1.585,1.5852,1.5854,0,0,0,0,0,1.5334,1.5367,1.5374,1.5388,1.5467,1.5521,1.5532,1.5561,1.5556,1.5575,1.5608,1.562,1.5729,1.5712,1.5727,1.5748,1.5857,1.5859,1.5862,1.5849,1.5852,1.5854,0,0,0,0,0,0,1.5315,1.5374,1.5383,1.5433,1.5472,1.5526,1.555,1.5562,1.5604,1.5604,1.564,1.5652,1.5704,1.5732,1.5712,1.5799,1.5794,1.5799,1.5779,1.5782,1.5784,1.5776,1.5723,0,0,0,0,0,1.5316,1.5353,1.5404,1.5444,1.5463,1.5503,1.5527,1.5546,1.5589,1.5605,1.5642,1.5684,1.5729,1.5757,1.58,1.5854,1.5869,1.5877,1.5879,1.588,1.5885,1.5918,1.5923,1.5871,1.5871,1.5871,0,0,1.532,1.5357,1.5378,1.5441,1.5473,1.5513,1.5516,1.5558,1.5589,1.5612,1.5665,1.5694,1.5744,1.5799,1.5825,1.5823,1.5902,1.5883,1.5884,1.5888,1.5921,1.5926,1.593,1.5873,1.5873,1.5873,0,0,1.5347,1.5378,1.5415,1.5447,1.5496,1.5523,1.5532,1.5584,1.5604,1.5657,1.5677,1.5715,1.5789,1.5824,1.5852,1.5895,1.5908,1.5908,1.5919,1.5951,1.5955,1.5958,1.5975,1.5981,1.5912,1.5912,1.5912,0,1.5345,1.5404,1.5433,1.5474,1.5502,1.5525,1.5565,1.5595,1.5656,1.5676,1.5673,1.5768,1.5803,1.5867,1.5878,1.5899,1.5912,1.5902,1.5951,1.5955,1.5959,1.5976,1.5982,1.5912,1.5912,1.5912,1.5912,0,1.5401,1.5442,1.5467,1.5524,1.5555,1.5595,1.5633,1.5661,1.5678,1.5706,1.5762,1.5805,1.5858,1.5874,1.5892,1.5942,1.594,1.5944,1.5939,1.5964,1.598,1.5986,1.5912,1.5912,1.5912,1.5912,0,0,1.5418,1.5491,1.55,1.5527,1.5583,1.5616,1.5659,1.571,1.5734,1.5776,1.5814,1.5878,1.5882,1.5913,1.5935,1.5963,1.5997,1.5964,1.5966,1.597,1.6057,1.6055,1.6061,1.6006,1.6007,1.6008,1.6054,0,1.5453,1.5527,1.5556,1.5618,1.5657,1.5681,1.5718,1.5758,1.5786,1.5825,1.5857,1.5902,1.5903,1.5923,1.5951,1.5986,1.6015,1.5983,1.6043,1.6045,1.6031,1.6069,1.6066,1.6107,1.606,1.6061,1.6062,0,1.5503,1.5544,1.561,1.5663,1.5681,1.5714,1.5764,1.58,1.5847,1.5866,1.5901,1.5922,1.597,1.5962,1.603,1.6008,1.6035,1.6056,1.6058,1.6065,1.6055,1.6079,1.6121,1.6127,1.6072,1.6071,1.607,0,1.551,1.5582,1.5631,1.5654,1.5717,1.574,1.5767,1.5813,1.5843,1.5887,1.5907,1.5957,1.5985,1.6024,1.6059,1.6049,1.6124,1.6119,1.6143,1.6142,1.6158,1.6156,1.6206,1.6174,1.6173,1.6173,1.6173,0,1.5546,1.5586,1.5636,1.5666,1.5712,1.5746,1.5791,1.5821,1.5861,1.59,1.5923,1.5959,1.6002,1.6044,1.6072,1.6125,1.6137,1.6155,1.6162,1.6153,1.6151,1.6172,1.617,1.6175,1.6175,1.6174,1.6174,0,1.5561,1.5596,1.5651,1.5707,1.5722,1.5753,1.5802,1.5834,1.5863,1.5911,1.5925,1.5972,1.6023,1.6061,1.6127,1.6146,1.6203,1.621,1.6187,1.619,1.6213,1.6211,1.6278,1.6289,1.6248,1.6248,1.6249,0,1.5582,1.5613,1.5672,1.5699,1.5726,1.5769,1.5799,1.5834,1.5865,1.5922,1.5948,1.6,1.6044,1.6125,1.6166,1.6218,1.6227,1.6247,1.6235,1.6225,1.6229,1.6227,1.6231,1.6248,1.6248,1.6249,1.6249,0,1.5616,1.5632,1.5674,1.5723,1.5758,1.5799,1.584,1.5861,1.5904,1.5938,1.599,1.6024,1.6092,1.6144,1.62,1.6231,1.6248,1.6252,1.6261,1.6253,1.6238,1.6248,1.6192,1.6251,1.625,1.625,1.625,1.625,1.5636,1.5665,1.5712,1.5759,1.5793,1.5831,1.5864,1.5898,1.5941,1.5998,1.6017,1.6072,1.6121,1.6197,1.6229,1.6273,1.6274,1.6286,1.6289,1.6292,1.6292,1.6231,1.6284,1.6284,1.6284,1.6284,1.6284,0,1.5672,1.5704,1.5746,1.5803,1.584,1.5852,1.5898,1.5929,1.5976,1.602,1.6062,1.6123,1.6175,1.6221,1.6275,1.6302,1.6312,1.6316,1.6314,1.6322,1.6288,1.6275,1.6307,1.6307,1.6307,1.6307,1.6307,1.6307,1.5696,1.5747,1.5769,1.5838,1.587,1.5922,1.5948,1.5985,1.602,1.6086,1.6129,1.6158,1.6204,1.6262,1.6311,1.6323,1.6343,1.6345,1.6359,1.6327,1.6324,1.6321,1.631,1.6348,1.6349,1.639,1.639,1.6391]},{"header":{"parameterUnit":"m.s-1","parameterCategory":1,"la1":30.2991,"la2":30.254,"lo1":-89.0895,"lo2":-89.0444,"dy":0.0017,"dx":0.0017,"nx":28,"ny":28,"refTime":"2024-07-27T03:00:00:Z","depth":0,"parameterNumber":3,"parameterNumberName":"V-component_of_WINDS"},"data":[0,0,0,0,0,0,0,0,0,0,0,0,0,0,0,0,0,0,0,0,0,0,0,0,0,0,0,0,0,0,0,0,0,0,0,0,0,0,0,0,0,0,0,0,0,0,0,0,0,0,0,0,0,0,0,0,0,0,2.7685,2.7686,0,2.7813,2.7815,2.7816,2.7864,2.7864,2.7863,2.7863,2.7992,2.7995,2.7999,0,0,0,0,0,0,0,0,0,0,0,0,0,2.7478,2.7482,2.7685,2.7686,2.7688,2.7813,2.7815,2.7816,2.7864,2.7864,2.7863,2.7863,2.7991,2.7995,2.8,0,0,0,0,0,0,0,0,0,0,0,0,0,2.7583,2.7483,2.7684,2.7727,2.7732,2.7813,2.7815,2.7817,2.7864,2.7864,2.7863,2.7863,2.7989,2.7995,2.8,2.8047,0,0,2.8018,2.802,0,0,0,0,0,0,0,0,2.7577,2.7591,2.7719,2.7724,2.773,2.7822,2.7789,2.7894,2.7865,2.7814,2.7863,2.7862,2.7936,2.7946,2.7971,2.8053,2.8058,2.8018,2.8021,2.8024,2.8026,0,0,0,0,0,0,0,2.757,2.7586,2.7735,2.7721,2.7728,2.7739,2.7753,2.7809,2.7876,2.7818,2.7822,2.7837,2.7938,2.7965,2.7974,2.806,2.8018,2.8023,2.8026,2.8029,2.8187,2.8187,0,0,0,0,0,0,2.7556,2.7579,2.7731,2.7739,2.7651,2.7743,2.7759,2.7793,2.7876,2.7888,2.7837,2.7839,2.7956,2.7968,2.7979,2.8039,2.8024,2.8029,2.8032,2.8186,2.8187,2.8188,0,0,0,0,0,0,2.7551,2.7569,2.7726,2.766,2.7681,2.7747,2.7785,2.7796,2.7823,2.789,2.7902,2.7853,2.7956,2.7971,2.803,2.8044,2.8032,2.8037,2.8185,2.8186,2.8187,2.816,0,0,0,0,0,0,2.7545,2.7567,2.7586,2.7661,2.7685,2.7776,2.7786,2.7799,2.7833,2.7836,2.7908,2.7919,2.7957,2.8021,2.8035,2.8052,2.8041,2.8184,2.8186,2.8187,2.816,2.816,2.816,0,0,0,0,0,2.7538,2.7573,2.7587,2.7605,2.771,2.7776,2.779,2.7833,2.7834,2.7853,2.7896,2.7917,2.804,2.8027,2.8043,2.8062,2.8183,2.8185,2.8187,2.816,2.816,2.816,0,0,0,0,0,0,2.7498,2.7584,2.76,2.7661,2.7711,2.7785,2.781,2.7832,2.7883,2.7884,2.7934,2.795,2.8004,2.8039,2.8022,2.8111,2.8113,2.8118,2.8087,2.8088,2.8088,2.8078,2.8046,0,0,0,0,0,2.7496,2.7544,2.7616,2.7662,2.7687,2.7744,2.7775,2.7804,2.7857,2.7879,2.7926,2.7977,2.8027,2.8059,2.8109,2.8165,2.8181,2.8186,2.8186,2.8186,2.819,2.8221,2.8224,2.8194,2.8194,2.8194,0,0,2.7493,2.7546,2.7573,2.7656,2.7698,2.7746,2.7762,2.7811,2.7847,2.7886,2.7945,2.7981,2.8041,2.8098,2.8126,2.8129,2.8201,2.8188,2.8187,2.8192,2.8223,2.8226,2.8229,2.8195,2.8195,2.8194,0,0,2.7513,2.7557,2.7601,2.7643,2.7708,2.7745,2.7755,2.7826,2.7852,2.7912,2.7942,2.7984,2.807,2.8111,2.8144,2.8177,2.8198,2.8192,2.8193,2.8224,2.8226,2.8228,2.8241,2.8244,2.8196,2.8196,2.8196,0,2.75,2.7574,2.762,2.7669,2.7704,2.7742,2.7786,2.7824,2.7901,2.7924,2.7926,2.8034,2.8077,2.8145,2.8153,2.8178,2.8191,2.8184,2.8222,2.8225,2.8228,2.824,2.8244,2.8195,2.8195,2.8195,2.8195,0,2.7556,2.7607,2.7634,2.7708,2.7747,2.7792,2.7844,2.7877,2.7902,2.7939,2.7999,2.8052,2.8113,2.8131,2.8156,2.8202,2.8202,2.8212,2.8216,2.8229,2.8241,2.8246,2.8193,2.8193,2.8194,2.8194,0,0,2.7555,2.7654,2.7663,2.7697,2.777,2.781,2.7857,2.7918,2.7945,2.7996,2.8036,2.8107,2.8118,2.8154,2.8184,2.821,2.8234,2.8217,2.822,2.8219,2.8287,2.828,2.8284,2.8247,2.8248,2.8249,2.8283,0,2.7583,2.7671,2.7713,2.7781,2.7828,2.7865,2.7905,2.7954,2.799,2.8034,2.8073,2.8123,2.8132,2.8155,2.8183,2.8225,2.8248,2.8223,2.8285,2.8287,2.8269,2.8291,2.8283,2.8312,2.8288,2.8288,2.8289,0,2.7629,2.7681,2.7754,2.7822,2.7843,2.788,2.7938,2.798,2.8036,2.806,2.8101,2.8129,2.8179,2.8178,2.8247,2.8229,2.8257,2.8281,2.8283,2.8291,2.8289,2.8299,2.8322,2.8327,2.8297,2.8296,2.8296,0,2.7621,2.7709,2.7764,2.7792,2.7873,2.7897,2.7931,2.7987,2.802,2.8071,2.8094,2.8149,2.818,2.8222,2.8264,2.826,2.8329,2.8332,2.835,2.8349,2.8364,2.8362,2.8392,2.8381,2.838,2.838,2.838,0,2.7649,2.7692,2.7762,2.7796,2.7845,2.7892,2.7939,2.7976,2.8025,2.8066,2.8101,2.8138,2.8192,2.8236,2.827,2.8322,2.8335,2.8355,2.8364,2.8353,2.835,2.8372,2.8371,2.8382,2.8381,2.8381,2.8381,0,2.7648,2.7697,2.7759,2.783,2.7849,2.7882,2.7943,2.7976,2.8014,2.8065,2.808,2.8138,2.8192,2.8238,2.8309,2.8331,2.8385,2.8395,2.8366,2.8371,2.8387,2.8385,2.8432,2.844,2.8422,2.8423,2.8423,0,2.7663,2.7698,2.7773,2.7803,2.7837,2.7886,2.7921,2.7968,2.8003,2.8069,2.8094,2.8151,2.8198,2.8282,2.833,2.8384,2.8396,2.8408,2.8404,2.8392,2.8396,2.8394,2.8398,2.8408,2.8408,2.8408,2.8408,0,2.7685,2.7707,2.7757,2.7815,2.7855,2.7903,2.7951,2.7973,2.803,2.8067,2.8123,2.8159,2.8232,2.8287,2.8346,2.8381,2.8404,2.8409,2.8416,2.8406,2.8388,2.8398,2.8367,2.8408,2.8408,2.8408,2.8408,2.8408,2.7694,2.7726,2.7784,2.7837,2.7879,2.7923,2.7958,2.8,2.8048,2.8111,2.8136,2.8192,2.8247,2.8329,2.8363,2.8407,2.8411,2.8422,2.8424,2.8426,2.8425,2.838,2.8418,2.8418,2.8418,2.8418,2.8418,0,2.7717,2.7756,2.7805,2.7872,2.7914,2.7933,2.7987,2.8021,2.8071,2.812,2.8166,2.823,2.8283,2.8335,2.8391,2.8417,2.8429,2.843,2.8429,2.8437,2.8418,2.8406,2.8419,2.8419,2.8419,2.8419,2.8419,2.8419,2.7735,2.7791,2.7819,2.7895,2.7934,2.7991,2.802,2.8061,2.81,2.817,2.8215,2.8249,2.8299,2.8359,2.8409,2.8423,2.8442,2.844,2.8457,2.8438,2.8438,2.8437,2.8427,2.8444,2.8444,2.8472,2.8472,2.8472]}]]